Location: Gök Da??
(39.0258°N, 32.3761°E)
Time: 15:12:27
(UTC+00:00)

Daily predictions for brighter satellites

Satellite Brightness Start Highest point End
(mag) Time Altitude Azimuth Time Altitude Azimuth Time Altitude Azimuth
Cosmos 1656 3.9 17:07:31 10° NNW 17:12:58 56° ENE 17:18:26 10° SE
ISS -2.4 17:19:09 10° S 17:21:39 20° SE 17:24:09 10° E
Cosmos 1190 Rocket 4.3 17:18:51 10° N 17:23:59 53° ENE 17:29:03 10° SE
Cosmos 2151 Rocket 4.3 17:22:41 10° SSE 17:26:33 32° E 17:30:27 10° NNE
COSMOS 2455 4.2 17:21:22 10° NW 17:26:54 39° WSW 17:32:24 10° S
Okean 2 Rocket 4.2 17:25:21 10° SE 17:29:02 26° E 17:32:46 10° NNE
Cosmos 2251 Rocket 3.6 17:24:08 10° NNW 17:29:28 64° ENE 17:34:45 10° SSE
Cosmos 1371 Rocket 4.0 17:25:07 10° S 17:30:22 72° ESE 17:35:41 10° NNE
CSL-04 Debris 4.3 17:25:04 10° SSE 17:30:22 63° ENE 17:35:45 10° N
CZ-4C R/B 2.3 17:30:27 10° S 17:33:42 26° ESE 17:37:29 10° NE
SL-4 R/B 3.6 17:30:53 10° NNW 17:34:00 23° NNE 17:37:09 10° ENE
ATLAS 3B R/B 3.9 17:33:04 10° NNW 17:40:03 35° NE 17:46:18 11° ESE
Cosmos 1536 Rocket 4.4 17:36:24 10° NNE 17:40:20 32° ENE 17:43:45 13° SE
SL-8 R/B 4.5 17:37:07 10° WNW 17:41:36 44° SW 17:45:55 11° SSE
Cosmos 1697 Rocket 3.5 17:39:07 10° N 17:44:13 34° ENE 17:48:24 14° ESE
ERS-1 Rocket 3.3 17:39:43 10° SE 17:44:30 48° ENE 17:49:19 10° N
DEBRIS 3.0 17:42:51 10° WSW 17:45:01 51° NNW 17:49:01 10° NE
Okean O Rocket 3.3 17:43:00 12° ESE 17:45:22 18° ENE 17:48:16 10° NNE
Cosmos 1954 Rocket 4.0 17:40:38 10° NNW 17:45:48 70° ENE 17:50:49 11° SSE
Cosmos 1867 4.1 17:40:57 10° SW 17:46:18 63° WNW 17:51:44 10° NNE
Cosmos 2360 4.3 17:40:44 10° NNW 17:46:28 88° WSW 17:52:12 10° SSE
MOS 1 4.4 17:46:52 10° SSE 17:52:25 61° ENE 17:58:01 10° N
Cosmos 332 Rocket 3.9 17:49:22 10° N 17:54:03 55° ENE 17:57:40 16° SE
Cosmos 1331 Rocket 4.3 17:49:07 10° S 17:54:05 45° ESE 17:59:02 10° NNE
Meteor 1-31 Rocket 2.6 17:53:09 10° S 17:56:37 75° WSW 18:00:07 10° NNW
Cosmos 2173 Rocket 4.1 17:51:24 10° SSE 17:57:17 53° E 18:03:16 10° NNE
Okean-O 3.9 17:55:48 16° ESE 17:57:59 24° ENE 18:01:29 10° NNE
USA 186 3.7 17:58:10 11° ENE 17:58:10 11° ENE 17:58:57 10° NE
Meteor 2-1 Rocket 4.3 17:52:52 10° S 17:58:29 58° E 18:04:00 10° NNE
Helios 1A Rocket 2.2 17:56:23 10° NNE 17:59:32 87° WNW 18:02:40 10° SSW
Cosmos 968 Rocket 4.1 17:56:01 10° N 18:00:58 41° ENE 18:04:13 19° SE
Cosmos 676 Rocket 4.0 17:56:02 10° NNW 18:01:14 70° ENE 18:05:17 17° SSE
Aureole 1 4.4 18:03:37 10° SSW 18:06:47 88° WNW 18:10:40 10° NNE
Cosmos 1455 Rocket 3.9 18:06:04 22° SE 18:07:56 30° E 18:11:46 10° NNE
BREEZE-M DEB (TANK) 2.6 18:08:27 10° NW 18:10:57 77° NE 18:13:34 23° ESE
Cosmos 1980 Rocket 3.5 18:07:26 10° N 18:12:11 26° ENE 18:15:03 18° E
Okean 1 Rocket 2.9 18:09:28 10° S 18:13:47 75° E 18:18:12 10° N
SL-08 R/B 3.2 18:10:52 10° NNE 18:15:42 70° ESE 18:20:25 10° S
Meteor 2-3 Rocket 3.7 18:12:01 10° N 18:17:39 70° E 18:21:40 20° SSE
ARIANE 6 FM1 Upper Stage 4.1 18:15:50 10° WNW 18:19:18 30° WSW 18:22:03 14° S
CZ-4 R/B 2.5 18:18:30 10° SSW 18:21:52 35° W 18:25:14 10° NNW
Cosmos 1802 Rocket 4.0 18:17:58 13° S 18:23:32 60° E 18:29:34 10° NNE
ASTEX 1 4.2 18:18:55 10° S 18:23:42 51° W 18:28:33 10° NNW
Longmarch 3A Rocket 3.7 18:19:13 10° WSW 18:24:13 18° SSW 18:25:05 17° S
CZ-4B R/B 3.3 18:20:09 16° SSE 18:24:45 87° WSW 18:30:26 10° NNW
Cosmos 1782 3.5 18:25:15 28° E 18:25:15 28° E 18:28:00 10° NNE
Cosmos 1833 Rocket 3.9 18:21:02 10° SW 18:26:21 44° WNW 18:31:43 10° N
Cosmos 1110 Rocket 4.1 18:22:50 10° SSW 18:28:06 81° WNW 18:33:26 10° NNE
Terra 2.1 18:28:44 17° S 18:32:16 63° W 18:36:56 10° NNW
Sich 1 Rocket 3.8 18:32:07 11° SSW 18:36:20 69° W 18:40:41 10° N
USA 229 DEB 4.1 18:33:55 10° NW 18:41:40 86° WSW 18:46:40 28° SSE
USA 229 4.1 18:33:58 10° NW 18:41:45 87° WSW 18:46:42 28° SSE
Cosmos 1459 Rocket 4.3 18:38:37 10° SSW 18:44:52 68° W 18:51:03 10° N
Meteor 1-27 4.1 18:41:53 22° S 18:45:39 74° E 18:51:16 10° NNE
SJ 16-02 4.1 18:45:06 10° WNW 18:46:29 11° W 18:47:52 10° WSW
YAOGAN 11 4.1 18:42:23 10° NNE 18:46:49 83° WNW 18:49:39 22° SSW
Cosmos 909 Rocket 4.2 18:43:32 11° S 18:49:32 51° ESE 18:55:34 10° NE
Cosmos 44 Rocket 3.8 18:45:22 10° SW 18:50:20 63° WNW 18:55:28 10° NNE
Ariane Rocket 3.7 18:52:17 33° E 18:53:10 36° ENE 18:57:45 10° N
BREEZE-M DEB (TANK) 4.2 18:51:28 10° W 18:55:07 25° NNW 18:57:01 11° NNE
ADEOS 4.3 18:51:51 19° SSW 18:55:16 47° W 19:00:19 10° NNW
Cosmos 1743 3.0 18:54:12 10° N 18:56:24 44° N 18:56:24 44° N
ISS -2.5 18:55:04 10° WSW 18:58:14 41° NNW 19:01:27 10° NE
Spot 2 Rocket 3.6 18:56:55 35° S 18:59:02 70° WSW 19:04:03 10° NNW
MOS 1-B 4.3 18:56:44 33° S 18:59:27 81° WSW 19:05:17 10° NNW
Cosmos 2082 Rocket 2.1 18:59:04 29° S 19:02:05 71° ESE 19:07:47 10° NNE
Aureole 3 Rocket 4.5 19:00:03 38° SSE 19:02:37 58° E 19:10:55 10° NNE
Cosmos 2233 Rocket 3.9 19:06:48 32° S 19:09:52 87° E 19:16:05 10° N
USA 234 4.2 19:04:40 10° ENE 19:08:15 27° E 19:08:15 27° E
Cosmos 1607 3.9 19:04:50 10° SSW 19:10:57 83° WNW 19:17:13 10° NNE
SL-4 R/B 2.0 19:07:49 10° NW 19:11:18 64° W 19:11:18 64° W
Milstar 3 3.8 19:12:45 10° WSW 19:19:26 38° S 19:20:57 36° SSE
Cosmos 2228 3.2 19:19:24 59° WSW 19:19:47 63° W 19:23:53 10° N
Okean O Rocket 2.6 19:20:14 33° SW 19:21:14 37° W 19:25:15 10° NNW
CZ-4C R/B 3.7 19:18:07 10° WSW 19:21:41 27° NW 19:25:59 10° NNE
DELTA 2 R/B (1) 3.4 19:16:27 10° WSW 19:21:59 71° SSE 19:22:25 67° SE
Tsikada Rocket 3.8 19:16:12 10° N 19:22:25 87° E 19:24:01 53° S
Cosmos 1626 Rocket 4.3 19:19:42 10° N 19:23:06 41° NE 19:23:06 41° NE
COSMOS 2406 3.5 19:25:32 48° E 19:25:32 48° E 19:30:32 10° NNE
Cosmos 1992 Rocket 3.8 19:26:01 72° ESE 19:26:04 72° ESE 19:31:16 10° NNE
USA 186 4.4 19:28:18 15° WNW 19:28:18 15° WNW 19:29:09 10° NW
Cosmos 1697 Rocket 4.0 19:23:09 10° NW 19:28:03 32° WSW 19:30:08 24° SW
ATLAS 3B R/B 3.2 19:23:43 10° NW 19:31:12 58° WSW 19:33:32 41° S
SL-16 R/B 3.6 19:27:47 10° N 19:32:26 25° NE 19:33:08 24° ENE
Okean-O 4.1 19:33:08 26° WSW 19:34:06 28° W 19:37:53 10° NW
CZ-4B R/B 3.3 19:39:17 74° W 19:39:17 74° W 19:44:00 10° NNW
Cosmos 2333 Rocket 3.5 19:40:21 10° N 19:45:12 28° ENE 19:45:39 28° ENE
Cosmos 2061 Rocket 4.5 19:44:57 34° SW 19:47:30 56° W 19:53:40 10° N
Cosmos 2098 Rocket 4.3 19:48:54 38° NE 19:48:54 38° NE 19:52:14 10° NNE
NOSS 3-3 (A) 4.0 19:47:14 33° WSW 19:49:25 61° NW 19:55:13 10° NNE
SPOT 3 Rocket 4.2 19:53:56 43° WSW 19:54:22 44° W 19:59:18 10° NNW
Cosmos 1980 Rocket 2.9 19:50:58 10° NW 19:56:19 44° WSW 19:56:48 43° WSW
Cosmos 1544 Rocket 4.4 19:58:36 48° NNW 19:58:36 48° NNW 20:02:02 10° N
Cosmos 1375 Rocket 4.4 20:08:15 83° ESE 20:08:17 83° ESE 20:14:51 10° NNE
Cosmos 1464 Rocket 3.9 20:08:45 69° ENE 20:08:45 69° ENE 20:14:28 10° NNE
Cosmos 1513 Rocket 4.5 20:11:46 69° WSW 20:12:19 73° W 20:18:32 10° N
Cosmos 2360 Rocket 3.4 20:17:42 10° N 20:22:30 32° NE 20:22:30 32° NE
Cosmos 1072 Rocket 4.4 20:23:37 80° WNW 20:23:37 80° WNW 20:29:52 10° N
ISS -0.3 20:34:15 10° NW 20:35:05 12° NNW 20:35:05 12° NNW
Cosmos 2219 Rocket 3.6 20:35:30 10° N 20:40:07 27° NE 20:40:07 27° NE
Cosmos 2034 Rocket 4.1 20:42:55 74° NNE 20:42:55 74° NNE 20:48:41 10° N
Cosmos 2322 Rocket 2.9 20:44:44 10° NNW 20:49:16 49° NNE 20:49:16 49° NNE
USA 234 3.5 20:47:14 10° NE 20:53:42 66° NW 20:55:31 47° W
Cosmos 2278 4.5 21:03:40 10° NNW 21:07:47 48° NW 21:07:47 48° NW
Cosmos 1634 Rocket 4.3 21:13:12 60° NNE 21:13:12 60° NNE 21:18:12 10° N
SL-16 R/B 3.4 21:11:18 10° NW 21:14:58 35° WNW 21:14:58 35° WNW
SeaSat 1 4.3 21:24:17 23° NE 21:24:17 23° NE 21:27:46 10° N
Cosmos 2333 Rocket 3.6 21:24:16 10° NW 21:27:39 31° WNW 21:27:39 31° WNW
CZ-2C R/B 3.9 21:34:56 35° NE 21:34:56 35° NE 21:38:38 10° N
Cosmos 2297 Rocket 4.0 21:52:12 21° ENE 21:52:12 21° ENE 21:54:43 10° NE
Aureole 1 Rocket 4.4 21:47:35 10° NNW 21:51:55 56° N 21:51:55 56° N
BREEZE-M DEB (TANK) 4.3 21:42:03 10° SW 22:05:08 71° SE 22:10:54 10° ENE
Cosmos 2360 Rocket 3.9 22:01:35 10° NW 22:04:14 24° WNW 22:04:14 24° WNW
Cosmos 2219 Rocket 3.7 22:19:02 10° NW 22:21:48 27° NW 22:21:48 27° NW
Meteor 1-27 Rocket 4.3 22:30:22 58° NNE 22:30:22 58° NNE 22:35:01 10° NNE
Cosmos 2322 Rocket 4.5 22:30:01 10° WNW 22:31:03 13° WNW 22:31:03 13° WNW
Meteor 2-4 Rocket 4.4 22:39:06 48° NE 22:39:06 48° NE 22:43:06 10° NNE
ACS3 Solar Sail 1.9 22:38:51 10° NNE 22:44:07 67° NE 22:44:07 67° NE
Iridium 4 Rocket 4.2 22:46:31 54° NE 22:46:31 54° NE 22:51:06 10° N
COSMOS 2428 3.4 22:42:26 10° NNW 22:46:33 50° NNW 22:46:33 50° NNW
Cosmos 2237 Rocket 3.1 22:46:23 10° N 22:51:45 41° ENE 22:52:25 40° E
Cosmos 1980 4.4 22:49:52 10° NNW 22:55:20 48° ENE 22:55:36 48° ENE
Cosmos 2227 Rocket 3.1 23:00:04 40° E 23:00:04 40° E 23:04:38 10° NE
ADEOS Rocket 4.4 22:53:03 10° NNE 23:00:02 36° E 23:01:56 32° SE
SeaSat 1 4.3 23:03:53 22° NW 23:03:53 22° NW 23:05:42 10° NW
Meteor 2-10 Rocket 4.1 22:59:46 10° N 23:04:50 58° ENE 23:04:50 58° ENE
Cosmos 1553 Rocket 4.0 23:16:37 71° ESE 23:16:54 72° E 23:23:17 10° N
Meteor 2-11 Rocket 4.4 23:11:26 10° N 23:17:34 80° E 23:17:38 80° E
Meteor 1-18 Rocket 4.3 23:18:33 73° NNE 23:18:33 73° NNE 23:23:37 10° N
Cosmos 2263 Rocket 3.1 23:20:20 38° ESE 23:20:20 38° ESE 23:25:25 10° NE
BREEZE-M DEB (TANK) 3.7 23:17:37 10° WNW 23:22:39 70° NNE 23:30:12 10° ESE
Sich 1 4.4 23:19:54 10° N 23:22:26 35° NNE 23:22:26 35° NNE
CZ-2D R/B 4.4 23:21:15 10° ENE 23:24:17 15° E 23:26:30 12° ESE
ATLAS 5 CENTAUR R/B 3.0 23:26:35 75° SSW 23:27:08 86° SE 23:42:41 10° NE
NOSS 0 Rocket 4.4 23:23:24 10° NNW 23:28:04 47° WNW 23:28:04 47° WNW
Cosmos 1655 Rocket 4.3 23:27:27 10° NNW 23:32:53 49° WNW 23:32:53 49° WNW
CZ-3 Stage 3 4.5 23:36:47 18° SE 23:36:47 18° SE 23:40:13 10° SE
Cosmos 2297 Rocket 3.0 23:33:58 40° WNW 23:33:58 40° WNW 23:39:09 10° N
Nimbus 7 Rocket 4.3 23:28:11 10° NNE 23:34:14 83° WNW 23:34:29 81° WSW
MSX 3.7 23:30:55 10° NNE 23:36:43 86° ESE 23:36:56 83° SSE
Okean 3 Rocket 4.4 23:32:46 10° N 23:36:06 49° N 23:36:06 49° N
SL-08 R/B 4.4 23:36:50 10° N 23:43:12 89° W 23:44:03 69° S
Lacrosse 4 Rocket 2.7 23:46:25 34° N 23:46:25 34° N 23:49:02 10° NNE
Cosmos 1500 Rocket 4.0 23:45:36 10° N 23:49:38 61° NE 23:49:38 61° NE
ISS -1.4 23:50:53 23° N 23:51:31 24° NNE 23:54:20 10° E
Atlas Centaur 2 4.3 23:52:21 21° SSE 23:52:21 21° SSE 23:57:48 10° ESE
Cosmos 1745 Rocket 4.3 23:46:45 10° N 23:52:49 61° E 23:55:24 34° SE
Cosmos 1386 Rocket 4.5 23:46:33 10° N 23:52:53 81° E 23:54:40 50° SSE
